Location: Star Hoppers Observatory
(42.7905°N, 83.6127°W)
Time: 21:49:48
(UTC-04:00)

NOSS 3-1 (A) - Visible Passes

Search period start: 31 August 2016 00:00
Search period end: 10 September 2016 00:00
Orbit: 855 x 1358 km, 63.4° (Epoch: 10 August)

Date Brightness Start Highest point End Pass type
(mag) Time Alt. Az. Time Alt. Az. Time Alt. Az.
02 Sep 5.9 06:01:58 10° SE 06:05:31 16° ESE 06:09:14 10° ENE visible
04 Sep 4.8 06:20:53 10° S 06:26:16 39° ESE 06:32:09 10° NE visible
05 Sep 5.5 05:37:26 10° SSE 05:41:56 23° ESE 05:46:45 10° ENE visible
06 Sep 5.9 04:55:11 10° SE 04:57:45 13° ESE 05:00:24 10° ENE visible
07 Sep 4.2 05:57:09 10° SSW 06:02:50 53° ESE 06:09:05 10° NE visible
08 Sep 4.9 05:13:18 10° S 05:18:24 32° ESE 05:23:57 10° NE visible
09 Sep 5.6 04:30:11 10° SSE 04:34:08 19° ESE 04:38:19 10° ENE visible
09 Sep 3.5 06:18:13 10° SW 06:24:07 75° NW 06:30:46 10° NE visible
